Temp
48 48 47 47 47 47 47 46 46 46 46 46 46 46 46 47 47 45 43 48 38 32 39 41 41 35 37 38 30 35 34 36 35 29 29 29 29 33 31 37 33 34 30 32 36 34 35 52 56 49 52 57 62 67
48 47 47 47 46 46 46 46 46 46 46 46 46 46 47 47 47 45 38 45 45 34 38 45 44 45 44 43 37 35 33 31 36 30 34 35 30 33 33 28 39 32 37 35 35 38 51 53 52 55 56 54 59 62
47 47 46 46 46 46 46 46 46 46 46 46 46 46 46 47 47 46 42 42 37 33 39 42 42 48 48 46 48 34 42 39 37 38 32 34 28 35 29 32 32 33 35 39 39 44 49 52 54 55 57 55 58 62
47 47 46 46 46 46 46 46 45 46 46 46 46 46 47 47 47 45 41 44 37 35 29 37 47 43 51 49 46 45 43 43 41 38 32 32 31 39 33 35 34 37 34 32 38 43 48 53 52 52 55 56 56 62
46 46 46 46 45 46 45 45 45 46 45 46 46 47 47 47 47 46 45 41 39 34 30 35 45 47 47 46 44 44 42 39 35 32 31 31 39 36 37 38 36 38 32 29 30 35 37 39 46 53 51 52 55 57
46 46 46 46 45 45 45 45 45 45 45 46 46 47 47 47 45 38 33 42 40 38 30 28 45 42 45 45 43 42 42 38 35 33 35 39 42 37 30 33 41 37 38 38 34 40 40 44 44 50 51 54 55 56
46 46 46 46 45 45 45 45 45 45 45 46 46 46 46 47 45 36 36 41 42 38 32 30 34 45 43 43 44 42 40 37 36 33 33 38 40 38 32 30 42 45 45 45 45 40 37 42 43 45 48 55 57 58
45 45 45 45 45 45 45 44 44 45 45 46 46 46 45 45 44 37 40 41 39 34 34 28 31 37 43 38 37 43 35 34 35 36 40 37 39 38 30 41 44 46 46 44 47 46 41 46 46 50 51 52 55 55
45 45 45 45 44 44 44 44 44 45 45 46 46 42 41 41 34 38 41 40 38 37 30 32 28 26 43 41 41 36 37 29 40 32 35 38 34 30 38 42 44 46 44 45 46 45 44 40 45 46 50 51 51 54
45 44 44 44 44 44 44 44 44 45 46 44 38 33 31 35 42 41 36 32 32 32 33 28 38 29 37 37 36 35 37 32 28 32 41 33 34 43 46 47 48 48 48 49 44 42 41 42 40 46 48 50 50 48
45 45 44 44 44 44 44 44 45 46 45 35 32 32 37 42 40 34 28 27 29 26 33 35 35 32 41 30 32 37 31 34 26 32 31 32 33 41 46 47 49 49 49 49 49 49 48 47 46 45 48 48 50 49
45 45 45 44 44 44 44 45 45 42 35 37 39 39 39 33 30 26 27 29 28 27 36 34 37 39 40 41 32 35 28 33 24 38 29 27 39 44 45 44 45 48 48 48 50 49 49 48 48 44 45 46 46 49
45 44 44 44 44 44 45 45 45 42 42 41 35 31 31 29 22 21 20 26 27 36 37 38 34 39 38 38 32 30 25 27 38 26 28 35 42 44 44 45 43 45 48 49 48 48 47 47 47 46 45 44 44 45
44 44 43 43 44 44 44 43 43 42 41 33 29 22 27 23 27 31 33 37 41 40 40 40 36 33 36 30 33 24 33 32 25 23 27 39 42 43 44 46 44 39 42 46 47 47 45 44 42 41 41 39 36 39
44 43 43 44 44 44 44 43 43 46 40 33 33 25 27 36 38 39 41 39 42 44 41 38 37 36 33 28 33 30 25 22 28 28 37 41 43 43 45 44 45 46 45 47 48 47 44 43 42 43 40 44 43 36
43 42 43 43 43 44 44 44 45 45 40 35 34 31 36 33 32 34 36 37 44 40 41 39 31 27 26 30 26 25 25 25 32 39 43 44 43 45 46 46 46 46 48 48 49 48 48 45 42 46 46 46 34 35
42 40 42 42 44 44 43 42 42 38 37 33 32 36 36 35 33 38 41 42 45 38 32 34 25 26 35 27 26 33 30 37 42 43 46 46 45 46 46 47 47 47 48 48 48 48 47 48 48 47 46 48 46 46
40 42 40 44 43 42 41 43 39 35 30 35 31 35 37 38 36 38 41 43 39 38 38 33 38 29 27 26 30 38 41 43 44 44 45 46 47 47 47 47 47 48 47 48 47 47 48 47 47 47 48 48 47 47
42 42 39 40 42 41 35 36 39 30 33 36 36 39 39 39 41 42 42 43 42 44 39 35 30 30 33 39 39 41 43 43 42 44 45 47 47 47 47 47 46 47 47 47 47 47 47 46 46 46 47 47 45 46
42 42 41 40 42 38 31 32 41 32 29 35 38 36 38 38 42 40 40 39 37 35 30 28 31 36 39 42 46 45 46 47 44 42 43 46 48 47 47 47 47 48 46 46 46 37 46 45 46 46 45 43 41 41
41 42 41 41 37 35 35 34 33 35 37 34 38 36 36 39 35 35 35 39 30 29 28 34 37 40 43 45 47 47 46 46 44 44 43 43 47 47 45 46 45 44 43 42 40 40 38 38 39 40 38 37 38 39
38 41 39 37 33 33 31 38 35 38 33 36 35 36 33 31 32 34 36 31 31 36 36 37 37 37 37 39 41 44 45 44 44 43 37 38 39 41 41 42 40 39 39 38 36 35 35 37 37 36 35 34 35 36
39 38 35 34 30 30 31 36 30 34 29 32 35 29 30 32 35 37 31 35 36 37 37 37 38 39 38 39 40 41 41 39 41 42 42 41 41 40 39 38 37 34 35 37 36 34 33 33 33 33 33 32 32 32
36 33 29 29 30 26 32 28 34 33 33 30 28 25 29 32 35 32 29 36 36 36 37 36 36 36 38 36 35 34 34 36 35 34 35 35 36 38 39 38 38 36 35 35 35 33 33 31 31 31 30 29 30 29
28 27 29 24 31 26 25 27 28 28 24 28 27 28 31 33 28 29 29 33 33 33 35 36 36 35 33 33 35 34 33 34 33 33 34 35 34 37 37 37 37 35 35 32 30 30 30 30 29 29 29 28 28 27
21 26 25 26 27 26 27 22 23 25 28 25 28 34 34 30 25 24 31 33 33 33 32 32 33 32 32 35 33 34 34 36 35 34 34 35 33 32 32 32 32 31 33 31 29 27 28 28 28 27 28 28 28 26
21 22 28 35 34 32 28 30 31 29 25 24 29 28 27 23 23 30 35 35 35 35 38 38 37 34 32 33 33 33 35 34 33 32 33 32 32 32 32 29 27 29 31 30 28 27 26 27 27 27 27 28 28 27
27 29 21 26 28 32 26 27 26 26 29 34 31 24 24 26 28 35 37 36 36 37 37 37 37 36 32 31 31 31 30 30 30 31 32 32 33 32 30 31 30 27 30 29 28 28 28 27 27 27 27 27 27 28
25 29 27 22 23 26 28 27 28 33 36 33 29 29 30 35 35 35 35 35 35 35 32 30 30 31 30 30 30 30 30 31 29 26 25 28 29 29 31 30 30 30 30 29 27 27 27 27 26 27 27 27 28 29
24 30 25 22 20 21 28 33 32 32 34 35 35 34 34 33 33 33 33 33 32 31 32 32 32 30 30 29 27 27 29 30 30 29 28 28 29 30 29 28 28 28 28 28 28 29 27 28 28 28 27 27 27 27
28 27 25 25 23 29 32 29 27 27 27 29 27 29 32 30 32 31 30 31 32 31 30 30 30 31 30 30 30 29 29 30 28 28 29 30 29 28 28 26 27 27 27 28 27 27 27 27 26 25 25 24 24 25
25 24 24 21 24 25 25 26 28 28 27 26 29 25 26 27 28 32 29 28 28 27 30 31 31 31 32 33 32 30 28 30 28 27 26 29 28 27 26 26 25 26 26 26 26 25 25 25 25 24 23 23 23 23
22 23 25 26 23 22 25 26 26 25 23 24 26 26 27 29 28 31 29 30 30 30 31 32 33 32 30 31 31 30 27 27 23 22 20 21 22 24 26 26 26 25 25 25 24 24 23 23 22 22 21 21 21 22
MSLP
1029.51 1029.47 1029.41 1029.43 1029.29 1029.04 1028.80 1028.54 1028.23 1027.95 1027.63 1027.29 1027.03 1026.80 1026.58 1026.44 1026.32 1026.32 1025.78 1025.84 1026.06 1025.20 1023.51 1022.91 1022.54 1022.21 1021.53 1020.99 1020.66 1020.21 1019.49 1018.40 1017.51 1016.55 1015.71 1014.71 1013.58 1012.18 1011.66 1010.63 1010.10 1009.72 1010.05 1008.74 1007.48 1005.85 1004.43 1004.18 1002.62 1002.70 1002.91 1001.62 1000.70 999.92
1028.96 1028.97 1028.96 1028.92 1028.85 1028.67 1028.44 1028.27 1028.00 1027.69 1027.41 1027.12 1026.83 1026.50 1026.22 1026.03 1025.90 1025.96 1025.69 1025.74 1025.79 1025.69 1023.43 1022.78 1022.41 1022.06 1021.72 1021.33 1021.43 1021.07 1020.38 1019.93 1018.84 1017.94 1016.94 1015.92 1015.02 1013.71 1012.84 1011.45 1011.11 1010.75 1010.60 1009.20 1008.42 1007.03 1005.98 1005.52 1005.15 1004.85 1004.14 1003.20 1002.05 1001.03
1028.32 1028.37 1028.43 1028.41 1028.36 1028.25 1028.05 1027.86 1027.64 1027.31 1027.05 1026.84 1026.49 1026.13 1025.80 1025.56 1025.36 1025.34 1025.06 1025.22 1025.77 1024.84 1022.77 1021.49 1020.53 1020.46 1021.00 1020.91 1021.06 1020.66 1019.69 1019.92 1019.43 1019.58 1018.65 1016.97 1015.89 1015.09 1013.53 1012.53 1012.38 1012.33 1011.84 1009.74 1008.73 1007.75 1006.86 1006.52 1006.14 1005.70 1004.83 1004.16 1003.28 1002.25
1027.80 1027.82 1027.86 1027.88 1027.93 1027.86 1027.70 1027.52 1027.24 1026.85 1026.69 1026.47 1026.09 1025.69 1025.22 1024.91 1024.43 1024.17 1024.33 1024.38 1025.09 1024.43 1022.97 1020.76 1020.59 1020.27 1019.94 1020.07 1020.31 1020.40 1020.20 1020.22 1020.09 1019.66 1018.81 1017.38 1016.20 1015.58 1014.35 1013.74 1013.09 1012.57 1012.56 1011.35 1009.59 1008.84 1007.89 1007.01 1007.14 1006.72 1005.78 1004.87 1004.09 1002.79
1027.16 1027.16 1027.32 1027.36 1027.39 1027.39 1027.30 1027.09 1026.86 1026.49 1026.29 1026.12 1025.69 1025.23 1024.77 1024.31 1023.84 1023.65 1023.55 1023.84 1024.21 1024.74 1022.78 1020.79 1019.97 1019.22 1019.61 1019.67 1019.82 1020.10 1020.26 1020.16 1019.85 1019.34 1018.35 1017.20 1016.15 1015.72 1014.63 1013.85 1012.57 1012.82 1012.83 1012.42 1011.35 1011.45 1010.45 1009.54 1008.87 1008.11 1006.92 1005.86 1005.67 1004.15
1026.58 1026.58 1026.68 1026.79 1026.82 1026.80 1026.80 1026.65 1026.45 1026.12 1025.89 1025.68 1025.29 1024.87 1024.44 1023.99 1023.75 1023.96 1023.45 1023.49 1023.72 1024.10 1023.61 1021.38 1019.80 1019.23 1019.18 1019.17 1019.19 1019.33 1019.58 1019.86 1019.86 1019.08 1017.74 1016.73 1016.14 1016.11 1014.67 1012.90 1012.15 1012.88 1013.34 1013.22 1012.64 1011.95 1011.38 1010.59 1009.87 1008.99 1007.84 1007.64 1006.58 1005.09
1026.05 1026.11 1026.14 1026.14 1026.21 1026.21 1026.19 1026.08 1025.94 1025.70 1025.49 1025.18 1024.83 1024.49 1024.15 1023.75 1023.77 1023.96 1023.69 1023.63 1023.86 1024.35 1023.67 1021.65 1019.79 1018.97 1019.11 1018.80 1018.61 1018.83 1019.38 1019.44 1019.28 1018.61 1017.43 1016.17 1015.48 1015.71 1014.55 1013.09 1012.10 1011.80 1011.90 1011.89 1011.99 1012.39 1011.79 1011.28 1010.47 1009.89 1009.01 1007.60 1006.52 1006.17
1025.49 1025.53 1025.55 1025.58 1025.68 1025.64 1025.58 1025.50 1025.37 1025.15 1024.93 1024.66 1024.32 1024.05 1023.82 1023.58 1023.51 1023.74 1023.84 1023.89 1024.10 1024.22 1023.71 1022.14 1020.12 1019.14 1019.08 1018.21 1018.07 1018.62 1018.89 1019.16 1018.49 1017.51 1016.41 1015.59 1015.04 1014.76 1013.44 1012.02 1011.79 1011.67 1011.61 1011.66 1011.59 1011.91 1012.18 1011.68 1011.04 1009.73 1009.15 1008.65 1007.36 1006.95
1024.78 1024.89 1024.95 1025.07 1025.13 1025.07 1024.97 1024.85 1024.74 1024.54 1024.33 1024.11 1023.87 1023.90 1023.85 1023.70 1023.78 1023.72 1023.88 1024.16 1024.39 1024.20 1022.97 1021.99 1020.36 1019.13 1019.10 1018.40 1018.32 1018.67 1018.62 1018.13 1017.45 1016.73 1015.72 1015.11 1014.06 1013.04 1011.90 1011.53 1011.18 1011.07 1011.16 1011.19 1011.42 1011.64 1011.91 1012.05 1011.13 1010.53 1009.43 1008.54 1007.91 1007.69
1024.20 1024.29 1024.34 1024.43 1024.47 1024.42 1024.33 1024.10 1024.04 1023.87 1023.70 1023.76 1024.01 1024.05 1023.89 1023.92 1023.93 1024.12 1024.26 1024.20 1023.95 1023.45 1022.95 1021.68 1020.55 1019.71 1019.60 1018.72 1018.18 1018.23 1018.00 1017.39 1016.47 1016.02 1015.36 1014.46 1012.82 1011.97 1011.48 1011.05 1010.64 1010.41 1010.59 1010.88 1011.00 1011.21 1011.62 1011.70 1011.82 1011.11 1010.22 1009.66 1009.18 1009.03
1023.47 1023.59 1023.68 1023.77 1023.77 1023.76 1023.60 1023.34 1023.12 1022.95 1022.89 1023.12 1023.52 1023.64 1023.88 1023.95 1023.85 1023.71 1023.40 1023.33 1022.99 1022.38 1021.73 1020.81 1020.22 1019.57 1019.55 1019.29 1018.65 1018.42 1017.77 1016.88 1015.93 1015.22 1014.75 1013.17 1011.92 1011.13 1011.01 1010.60 1010.38 1009.97 1009.85 1010.05 1010.48 1010.74 1011.01 1011.16 1011.28 1010.99 1010.64 1010.60 1010.19 1010.15
1023.00 1022.99 1023.13 1023.21 1023.20 1023.03 1022.70 1022.35 1022.10 1022.22 1022.42 1022.79 1022.96 1023.66 1023.90 1023.84 1023.52 1023.23 1022.44 1022.32 1021.66 1020.55 1020.33 1019.92 1019.49 1019.54 1019.29 1019.49 1019.01 1018.20 1017.72 1016.81 1015.62 1015.40 1014.56 1012.65 1011.51 1011.35 1011.10 1010.96 1010.78 1010.09 1009.78 1009.83 1010.06 1010.29 1010.45 1010.73 1011.04 1011.31 1011.64 1011.75 1011.65 1011.37
1022.58 1022.62 1022.72 1022.70 1022.55 1022.21 1021.72 1021.25 1020.67 1021.25 1022.25 1022.77 1022.87 1023.11 1023.03 1023.37 1022.63 1021.77 1020.93 1020.31 1019.93 1019.60 1019.49 1019.34 1019.14 1019.16 1019.31 1019.28 1018.82 1018.27 1017.31 1016.09 1015.78 1014.94 1013.33 1012.29 1011.88 1011.71 1011.57 1011.35 1011.19 1011.42 1010.50 1010.27 1010.40 1010.50 1010.66 1011.02 1011.26 1011.46 1011.94 1012.38 1012.36 1012.37
1021.90 1022.22 1022.32 1022.18 1021.83 1021.42 1021.05 1020.99 1021.27 1021.70 1021.66 1021.82 1022.04 1022.22 1021.88 1021.54 1020.79 1019.73 1019.16 1018.72 1018.67 1018.70 1018.65 1018.72 1018.79 1019.02 1018.84 1018.74 1018.03 1017.49 1016.43 1016.03 1014.93 1013.92 1012.75 1012.16 1012.15 1012.18 1012.01 1011.70 1011.65 1012.28 1011.86 1011.34 1011.14 1011.30 1011.53 1011.72 1012.09 1012.54 1012.88 1013.16 1013.11 1013.01
1021.47 1021.79 1021.81 1021.50 1021.21 1021.06 1021.10 1021.43 1021.69 1021.49 1021.41 1021.14 1021.16 1020.54 1020.17 1019.50 1019.23 1018.97 1018.71 1018.55 1018.41 1018.48 1018.54 1018.46 1018.46 1018.64 1018.20 1018.19 1017.36 1016.75 1015.97 1014.99 1014.05 1013.20 1012.65 1012.67 1012.60 1012.51 1012.21 1012.14 1011.91 1011.83 1011.77 1011.67 1011.81 1011.92 1012.34 1012.64 1012.91 1013.04 1013.28 1013.32 1013.25 1013.49
1021.28 1021.51 1021.05 1020.96 1020.79 1020.82 1021.20 1021.59 1021.56 1021.41 1021.04 1020.72 1020.30 1019.57 1019.15 1019.02 1018.56 1018.52 1018.31 1017.93 1017.91 1018.33 1018.46 1018.42 1018.12 1017.99 1017.56 1017.09 1016.57 1015.79 1014.95 1013.84 1013.31 1012.95 1012.85 1012.85 1012.71 1012.48 1012.38 1012.41 1012.36 1012.32 1012.14 1012.02 1012.07 1012.32 1012.51 1012.77 1013.00 1012.97 1013.09 1013.12 1013.67 1013.77
1020.97 1020.75 1020.62 1020.37 1020.39 1020.91 1021.42 1021.65 1021.26 1020.83 1020.26 1019.79 1019.10 1018.91 1018.60 1018.28 1017.90 1017.52 1017.40 1017.16 1017.57 1017.88 1017.49 1017.58 1017.39 1016.94 1016.60 1016.05 1015.41 1014.60 1013.82 1013.19 1013.01 1013.00 1012.78 1012.78 1012.73 1012.59 1012.60 1012.55 1012.57 1012.50 1012.42 1012.46 1012.53 1012.53 1012.62 1012.69 1012.67 1012.69 1012.61 1012.59 1013.00 1013.09
1020.21 1020.34 1020.50 1020.02 1020.57 1021.02 1021.25 1021.24 1020.98 1020.44 1019.63 1018.78 1018.57 1017.97 1018.08 1017.73 1017.36 1017.09 1016.98 1017.02 1017.37 1017.06 1016.85 1016.65 1016.24 1015.88 1015.29 1014.46 1013.77 1013.44 1013.24 1013.20 1013.16 1013.05 1012.87 1012.74 1012.62 1012.63 1012.70 1012.53 1012.61 1012.62 1012.61 1012.61 1012.64 1012.69 1012.67 1012.61 1012.46 1012.26 1012.25 1012.24 1012.31 1012.24
1019.48 1019.96 1020.43 1020.51 1020.58 1020.68 1020.84 1020.97 1020.80 1019.76 1018.73 1018.41 1018.08 1017.77 1017.53 1017.06 1016.67 1016.48 1016.37 1016.38 1016.76 1016.58 1016.71 1016.28 1015.61 1014.43 1013.75 1013.41 1013.16 1012.93 1012.83 1012.84 1012.79 1012.76 1012.79 1012.79 1012.77 1012.68 1012.72 1012.70 1012.75 1012.68 1012.55 1012.52 1012.53 1012.51 1012.56 1012.62 1012.62 1012.52 1012.33 1012.18 1011.98 1011.85
1019.47 1019.85 1020.27 1020.57 1020.53 1020.47 1020.69 1020.58 1020.54 1019.68 1018.61 1017.85 1017.58 1017.03 1016.70 1016.13 1015.79 1015.74 1015.81 1015.95 1016.36 1016.65 1016.35 1015.40 1014.17 1013.66 1013.22 1013.05 1012.68 1012.66 1012.55 1012.56 1012.90 1012.67 1012.55 1012.52 1012.63 1012.66 1012.63 1012.60 1012.50 1012.47 1012.59 1012.61 1012.63 1012.82 1012.55 1012.39 1012.40 1012.34 1012.35 1012.37 1012.35 1011.91
1019.33 1019.52 1020.16 1020.40 1020.56 1020.65 1020.32 1019.89 1019.59 1018.81 1017.91 1017.46 1016.83 1016.75 1015.88 1015.58 1015.45 1015.13 1015.11 1015.35 1015.88 1015.39 1014.88 1014.31 1013.79 1013.39 1013.19 1012.92 1012.86 1012.72 1012.64 1012.75 1012.68 1012.60 1012.43 1012.39 1012.41 1012.57 1012.68 1012.69 1012.78 1012.86 1012.88 1012.92 1013.06 1013.03 1013.11 1012.97 1012.94 1012.97 1012.97 1012.87 1012.73 1012.48
1018.67 1019.26 1019.61 1020.33 1020.01 1019.96 1019.83 1019.14 1018.75 1018.35 1018.17 1016.81 1016.67 1016.35 1015.73 1015.23 1014.96 1014.90 1015.23 1015.30 1014.78 1014.14 1014.38 1014.08 1013.84 1013.66 1013.43 1013.13 1012.97 1012.80 1012.81 1012.91 1012.79 1012.84 1012.90 1012.97 1012.88 1012.73 1012.68 1012.91 1013.13 1013.14 1013.26 1013.36 1013.52 1013.57 1013.53 1013.46 1013.40 1013.33 1013.13 1012.90 1012.70 1012.29
1018.54 1018.87 1019.12 1019.57 1019.66 1019.34 1018.72 1018.78 1018.46 1017.70 1017.22 1016.45 1016.34 1016.00 1015.51 1015.12 1014.92 1015.22 1014.70 1014.16 1014.05 1014.33 1014.44 1014.32 1014.10 1013.92 1013.66 1013.44 1013.31 1013.19 1013.34 1013.26 1012.89 1012.74 1012.72 1012.85 1012.85 1013.02 1013.10 1013.29 1013.56 1013.70 1013.67 1013.66 1013.95 1014.03 1013.98 1013.92 1013.75 1013.53 1013.32 1013.01 1012.62 1012.09
1018.48 1018.47 1018.47 1018.47 1018.46 1018.10 1018.22 1017.91 1017.59 1017.05 1016.62 1016.37 1016.10 1015.55 1015.02 1014.76 1014.96 1014.67 1014.08 1013.51 1013.70 1014.09 1014.15 1014.16 1014.20 1013.82 1013.61 1013.72 1013.74 1013.85 1013.93 1013.89 1013.74 1013.85 1013.89 1013.72 1013.33 1013.32 1013.54 1013.68 1013.92 1014.22 1014.46 1014.41 1014.30 1014.27 1014.19 1014.07 1013.96 1013.65 1013.37 1013.02 1012.57 1012.11
1017.84 1017.96 1017.74 1017.29 1017.16 1017.26 1017.11 1016.75 1016.52 1016.48 1016.03 1015.88 1015.49 1014.82 1014.45 1014.79 1014.50 1014.00 1013.48 1013.24 1013.53 1013.74 1013.92 1014.08 1014.09 1014.04 1013.90 1013.83 1013.85 1014.10 1014.43 1014.31 1014.02 1013.92 1014.26 1014.25 1014.14 1013.88 1013.87 1014.04 1014.29 1014.67 1014.83 1014.72 1014.73 1014.64 1014.45 1014.28 1014.04 1013.74 1013.39 1012.97 1012.61 1012.16
1016.38 1016.22 1016.09 1015.65 1015.80 1015.78 1015.60 1015.70 1015.73 1015.42 1015.23 1015.38 1014.80 1014.33 1014.36 1014.33 1014.11 1013.43 1012.88 1012.84 1013.17 1013.50 1013.77 1013.92 1013.95 1013.98 1014.04 1014.09 1014.15 1014.23 1014.46 1014.55 1014.45 1014.21 1014.55 1014.68 1014.70 1014.62 1014.41 1014.34 1014.47 1014.89 1015.34 1015.38 1015.20 1015.03 1014.77 1014.50 1014.15 1013.81 1013.36 1012.99 1012.69 1012.30
1015.14 1014.89 1014.94 1014.94 1014.63 1014.74 1014.85 1014.93 1014.89 1014.65 1014.53 1014.32 1013.96 1014.09 1014.11 1013.87 1013.16 1012.63 1012.61 1012.93 1013.07 1013.33 1013.55 1013.74 1013.91 1013.98 1014.13 1014.31 1014.65 1014.88 1014.93 1014.99 1014.84 1014.89 1015.05 1015.26 1015.42 1015.43 1015.32 1015.22 1015.17 1015.53 1015.62 1015.57 1015.50 1015.39 1015.08 1014.68 1014.29 1013.92 1013.53 1013.14 1012.90 1012.50
1013.77 1013.69 1014.02 1014.37 1014.37 1014.25 1014.16 1014.15 1014.03 1013.68 1013.40 1013.34 1013.52 1013.39 1013.09 1012.78 1012.24 1012.26 1012.47 1012.87 1013.13 1013.38 1013.62 1013.90 1014.13 1014.26 1014.46 1014.70 1014.92 1015.04 1015.22 1015.42 1015.47 1015.37 1015.42 1015.52 1015.61 1015.65 1015.75 1015.75 1015.85 1015.99 1015.81 1015.73 1015.58 1015.42 1015.18 1014.89 1014.57 1014.21 1013.89 1013.47 1013.16 1012.72
1013.09 1013.14 1013.72 1013.82 1014.25 1014.03 1013.64 1013.38 1013.03 1012.76 1012.50 1012.59 1012.54 1012.38 1012.30 1012.29 1012.36 1012.42 1012.70 1012.99 1013.32 1013.48 1013.71 1014.02 1014.24 1014.50 1014.72 1014.98 1015.15 1015.30 1015.38 1015.34 1015.20 1015.13 1015.08 1015.06 1015.20 1015.52 1015.76 1015.89 1015.93 1015.96 1015.83 1015.63 1015.71 1015.58 1015.38 1015.14 1015.02 1014.66 1014.30 1013.93 1013.58 1013.15
1012.34 1012.60 1012.85 1013.21 1013.20 1012.86 1012.55 1012.47 1012.49 1012.67 1012.68 1012.50 1012.51 1012.53 1012.43 1012.32 1012.50 1012.84 1012.88 1013.02 1013.14 1013.20 1013.27 1013.55 1013.76 1014.15 1014.26 1014.53 1014.92 1015.30 1015.42 1015.43 1015.39 1015.32 1015.02 1015.05 1015.19 1015.49 1015.78 1015.94 1016.04 1016.07 1015.97 1015.79 1015.58 1015.40 1015.42 1015.18 1015.09 1014.74 1014.54 1014.29 1014.04 1013.80
1011.65 1012.12 1012.18 1012.36 1012.29 1012.09 1012.09 1012.77 1013.25 1013.41 1013.27 1013.01 1013.12 1012.87 1012.48 1012.69 1012.42 1012.63 1012.75 1012.82 1012.92 1013.17 1013.29 1013.45 1013.60 1013.78 1013.96 1014.16 1014.34 1014.57 1014.72 1015.17 1015.36 1015.46 1015.42 1015.42 1015.57 1015.77 1015.99 1016.20 1016.29 1016.28 1016.18 1016.01 1015.82 1015.68 1015.63 1015.63 1015.56 1015.41 1015.31 1015.18 1015.05 1014.78
1011.20 1011.11 1011.22 1011.46 1011.75 1012.45 1012.86 1012.85 1012.89 1012.88 1013.00 1013.03 1012.67 1013.11 1013.01 1013.02 1012.41 1012.04 1012.53 1012.78 1012.81 1012.85 1012.84 1013.01 1013.11 1013.25 1013.57 1013.84 1014.12 1014.48 1014.84 1014.97 1015.30 1015.58 1015.66 1015.61 1015.75 1016.08 1016.30 1016.45 1016.54 1016.48 1016.42 1016.32 1016.23 1016.23 1016.29 1016.26 1016.22 1016.20 1016.24 1016.26 1016.16 1016.01
1011.05 1011.16 1010.97 1011.14 1011.64 1011.99 1012.23 1012.41 1012.52 1012.65 1012.86 1012.50 1012.32 1012.49 1012.34 1012.13 1011.80 1011.67 1012.36 1012.52 1012.44 1012.40 1012.52 1012.68 1012.91 1013.17 1013.55 1013.69 1014.02 1014.45 1014.94 1015.23 1015.66 1015.96 1016.07 1016.12 1016.23 1016.34 1016.45 1016.63 1016.75 1016.79 1016.74 1016.67 1016.73 1016.83 1016.92 1017.00 1017.08 1017.18 1017.25 1017.29 1017.30 1017.25
Wind_Speed
12 12 10 12 12 13 14 10 12 16 14 14 12 11 11 12 11 3 3 4 3 4 12 7 8 12 11 9 9 11 9 1 5 5 4 4 4 5 5 9 3 8 6 3 6 6 7 15 3 5 9 11 7 12
13 12 11 12 12 12 13 10 13 15 14 14 14 13 13 13 12 2 3 2 5 5 10 15 16 19 20 18 10 3 6 5 4 5 3 3 4 5 8 4 8 4 5 2 5 3 6 7 7 9 9 10 8 6
14 14 11 11 11 12 12 11 12 15 14 15 15 16 15 15 15 11 6 4 2 4 10 8 8 3 7 11 12 6 2 4 4 4 5 3 5 5 6 4 8 7 7 6 5 4 2 7 12 15 14 12 12 8
12 12 11 11 11 12 11 12 13 14 14 15 16 18 18 19 16 15 5 3 2 3 5 4 2 9 9 8 14 16 10 9 7 6 5 3 4 3 5 8 12 6 8 6 5 6 6 3 16 16 16 15 13 7
14 13 11 11 11 12 11 12 13 14 14 15 17 18 20 19 15 7 6 6 6 4 5 9 15 5 3 6 12 13 12 9 5 4 4 4 4 5 5 6 8 3 5 5 4 8 8 7 15 16 13 16 14 10
13 12 10 11 11 11 11 13 14 15 14 15 18 19 19 13 7 2 3 2 3 3 3 4 4 5 3 4 8 10 8 6 4 4 4 4 4 4 5 5 3 5 3 3 6 14 9 12 6 16 15 13 12 11
11 10 10 11 11 10 12 13 14 15 15 16 17 18 16 10 1 2 4 3 6 2 3 5 4 1 4 3 3 3 5 4 5 3 5 9 8 4 4 10 15 9 6 9 8 10 3 12 8 9 14 13 11 12
12 11 11 11 11 11 13 14 15 15 16 16 17 21 7 1 1 1 0 5 5 1 2 4 4 4 3 4 1 1 3 3 4 5 4 6 6 5 6 12 9 12 10 10 9 3 5 8 11 11 4 9 7 12
12 11 11 11 11 12 14 15 15 16 16 17 19 4 1 1 1 2 6 7 1 3 3 3 4 5 3 2 2 3 3 4 3 5 5 4 7 7 10 13 13 12 6 7 3 2 5 6 9 11 12 5 7 10
12 12 12 12 12 13 15 16 16 17 18 10 2 1 2 1 12 3 2 3 3 2 3 4 3 6 5 4 2 3 3 3 3 4 2 4 9 16 17 16 15 15 14 12 7 7 2 5 6 9 9 11 6 7
13 12 12 12 12 14 16 17 19 19 18 3 3 2 2 3 3 0 2 3 1 4 4 4 4 6 3 4 3 2 3 3 4 2 4 3 3 3 6 10 11 11 11 13 13 12 9 6 5 6 9 10 11 8
14 12 12 11 13 15 17 19 20 9 3 4 5 4 2 2 2 3 2 2 5 3 3 3 2 3 1 2 4 3 4 3 5 2 3 3 3 9 7 9 13 10 1 5 7 8 7 6 6 3 5 6 8 8
13 12 10 12 14 16 19 21 9 18 16 3 2 3 3 2 5 5 5 4 3 3 3 3 2 2 2 4 4 3 5 4 2 3 3 3 7 8 8 6 13 14 12 10 9 8 6 5 5 6 5 4 3 5
13 10 10 12 13 15 4 13 22 11 2 2 4 4 5 5 6 5 5 2 1 3 3 3 3 3 2 4 3 5 3 2 3 3 2 4 7 7 5 5 13 5 3 7 10 10 10 9 9 7 5 3 0 3
11 9 10 14 8 10 14 19 2 1 2 3 4 5 7 5 4 3 4 4 4 3 3 3 3 3 3 4 3 4 4 4 3 3 3 5 5 5 6 5 5 5 5 7 7 6 5 4 2 2 0 2 2 3
9 8 6 3 9 12 19 7 2 2 2 3 5 4 4 4 6 5 7 8 4 4 3 3 4 3 5 3 3 5 3 3 1 4 4 4 4 3 4 5 5 5 7 7 8 7 5 3 4 5 4 4 1 2
9 4 2 6 13 17 11 2 2 4 4 4 4 4 6 5 5 5 5 6 3 5 5 4 5 7 1 4 4 4 4 2 3 4 5 5 5 5 5 4 3 5 6 6 7 8 8 7 5 5 7 6 4 5
4 5 3 13 10 6 1 2 3 4 6 6 5 5 6 6 6 6 5 4 6 6 6 6 4 7 5 6 7 5 5 4 4 5 6 6 6 4 3 5 5 6 7 6 6 6 7 8 9 8 10 9 9 9
9 8 6 2 5 3 4 4 3 5 6 3 5 6 6 5 7 9 8 7 8 6 4 4 8 8 11 9 9 8 6 6 6 5 4 5 5 3 5 6 7 9 9 8 8 6 7 8 7 7 8 9 9 10
13 13 10 4 4 3 3 3 2 4 4 2 4 6 5 6 7 6 7 6 7 4 6 7 9 9 8 7 7 7 7 6 4 6 6 5 5 5 8 7 7 7 6 7 6 3 7 7 8 9 9 10 11 12
11 6 7 5 2 2 2 3 4 4 4 4 3 3 6 5 6 7 7 4 6 4 5 7 9 9 11 12 10 10 10 9 9 9 9 8 8 7 6 5 5 4 5 5 6 7 6 8 8 8 8 8 9 10
4 14 4 5 3 4 4 5 4 2 3 5 4 4 5 4 3 1 1 5 4 3 2 4 5 7 9 13 12 13 10 10 9 7 6 5 6 6 4 3 3 4 4 5 5 6 6 7 8 8 9 8 9 10
9 4 3 3 5 5 2 3 5 4 4 3 2 3 3 3 1 1 3 3 2 2 2 4 5 6 7 7 6 6 4 6 6 7 6 6 4 3 3 2 2 3 4 4 4 5 6 8 8 8 9 9 9 10
3 5 6 7 9 5 4 5 4 3 4 3 3 4 4 3 1 3 4 2 1 3 3 4 4 4 3 2 1 1 2 2 2 0 1 2 3 1 2 1 1 1 3 4 5 5 7 7 9 8 8 9 9 9
6 9 6 7 6 7 6 5 6 5 5 4 4 4 3 2 3 3 4 2 3 3 3 3 3 2 2 2 2 2 2 2 2 1 0 2 3 3 1 0 2 3 4 4 5 6 7 7 7 8 8 8 10 11
7 8 10 11 6 7 8 6 8 8 5 5 6 2 2 3 4 5 3 3 3 3 3 3 3 4 4 2 3 2 2 3 3 2 1 2 2 2 2 1 1 2 4 4 5 6 7 7 7 9 8 9 10 11
7 9 5 5 4 4 4 3 4 4 6 7 3 4 4 5 6 4 2 3 3 2 3 2 2 3 4 1 0 1 2 2 3 3 3 2 2 2 2 2 2 2 3 4 4 5 6 7 7 8 8 7 8 9
6 7 9 9 6 6 5 5 6 7 6 4 3 7 5 6 3 2 2 2 3 3 3 2 1 1 1 1 1 1 1 1 3 3 3 3 2 1 1 1 1 2 3 2 3 3 4 5 6 7 7 8 8 9
6 6 7 8 5 5 7 8 6 5 3 5 4 5 4 3 1 2 2 2 3 4 4 4 3 3 3 2 1 1 3 2 1 2 2 1 2 2 1 1 1 2 2 2 0 3 4 4 5 5 6 6 6 7
6 9 6 9 7 10 6 7 3 2 2 1 2 1 2 2 1 0 2 3 5 6 4 4 4 5 3 4 3 4 4 3 3 3 2 1 1 3 2 1 1 2 2 2 2 3 3 3 3 5 7 7 7 8
8 8 6 6 6 5 3 3 2 1 1 2 1 4 4 3 2 3 4 3 3 4 5 5 6 6 5 5 5 5 4 4 3 4 4 1 2 2 1 1 1 1 1 1 2 3 4 5 6 8 9 10 11 10
8 10 9 8 5 4 4 5 4 4 3 3 4 3 2 3 4 3 4 4 5 6 7 6 6 6 5 3 3 3 3 2 2 2 5 4 3 3 3 2 1 1 2 3 4 4 6 6 6 7 9 11 11 12
4 4 5 6 4 7 6 6 6 3 4 4 5 5 5 4 6 2 4 4 3 4 5 4 3 3 3 3 4 4 3 3 5 3 4 4 4 4 4 3 2 3 4 5 6 6 7 8 8 9 9 10 10 11
Wind_Direction
289 300 305 308 309 319 322 325 331 336 327 329 328 322 318 319 328 291 315 231 247 268 295 270 291 295 287 274 295 337 304 53 307 313 321 350 306 354 293 322 295 185 182 243 221 217 213 1 283 290 350 313 321 237
270 283 291 298 300 309 315 315 326 331 324 325 325 327 316 305 298 276 263 202 230 243 276 303 286 280 269 270 281 262 302 289 310 302 346 318 314 308 330 288 352 216 343 279 272 44 13 28 33 358 340 317 325 303
263 264 278 293 292 301 313 310 320 322 320 316 319 322 317 305 294 278 261 208 204 256 275 253 267 266 241 240 226 259 273 291 275 354 325 302 290 322 311 332 325 324 334 283 141 233 0 37 28 5 1 346 326 316
272 265 268 285 286 294 303 306 316 318 316 309 317 319 318 314 304 265 237 205 230 296 274 297 335 263 291 249 215 221 281 290 278 291 289 309 295 296 294 305 295 289 305 326 295 40 296 105 20 355 0 5 354 359
264 266 260 281 281 288 295 303 314 313 310 309 313 319 321 322 323 275 276 193 185 230 298 303 305 325 208 231 218 222 245 259 266 270 256 266 273 291 262 270 262 0 17 358 342 357 329 338 337 351 9 14 354 6
271 264 254 276 276 284 292 302 309 311 308 307 311 319 324 343 39 9 275 77 200 185 279 288 337 273 281 248 237 232 227 224 236 246 263 264 262 282 284 274 320 141 291 324 321 321 316 355 294 350 352 351 354 25
264 266 259 271 272 281 293 301 307 305 300 304 309 312 319 311 218 247 332 29 142 116 256 283 272 99 306 283 182 162 183 211 224 245 248 265 268 222 261 273 287 300 276 323 319 335 344 1 348 329 325 337 23 27
255 255 261 269 267 280 291 299 302 296 296 302 308 315 334 342 76 251 139 170 126 157 260 280 282 280 357 292 277 152 179 231 225 256 249 261 280 228 255 260 286 291 303 293 273 42 330 344 342 356 315 313 12 37
245 250 261 262 266 280 290 297 293 291 294 299 314 74 251 89 271 340 131 111 116 297 294 253 293 318 351 306 289 187 267 242 216 247 245 270 249 234 261 290 293 295 289 306 336 328 12 354 351 346 356 10 15 26
240 249 257 255 266 280 291 290 289 288 292 333 105 196 173 290 113 129 158 200 217 185 228 261 292 276 317 303 282 279 206 267 269 226 249 246 256 260 270 280 284 278 265 260 250 239 212 313 314 323 12 15 7 24
236 245 249 255 273 287 287 287 288 295 291 130 176 157 72 133 222 323 247 249 181 237 208 244 274 295 139 276 312 319 312 278 275 82 278 259 271 334 323 305 314 285 259 233 243 262 273 273 269 345 12 14 17 20
237 243 247 266 283 286 287 290 291 284 168 154 110 101 135 189 191 250 232 217 228 273 193 256 321 274 246 245 263 202 273 266 267 355 258 258 34 347 348 358 14 358 277 229 255 264 265 252 238 175 325 37 11 9
236 237 253 276 284 291 297 300 297 132 126 123 107 131 214 135 227 231 204 202 231 195 205 226 269 265 192 228 260 256 246 242 296 242 271 333 6 3 16 54 68 15 34 63 60 65 86 93 116 138 136 110 115 51
222 232 261 276 287 301 306 127 135 134 153 168 170 177 232 180 235 213 236 254 100 239 238 255 273 244 264 240 240 252 262 293 264 261 299 6 7 8 70 89 96 111 10 38 51 58 62 69 73 62 57 73 358 58
209 237 264 277 288 295 147 143 116 266 225 195 207 220 214 235 251 248 254 253 235 265 238 251 240 245 231 262 236 277 250 253 254 314 339 9 360 0 57 54 52 60 47 52 48 58 73 63 33 51 323 318 24 2
206 254 233 273 291 165 155 166 286 253 234 224 230 234 213 244 244 229 235 252 244 227 236 239 257 248 241 246 235 227 258 250 28 7 16 354 337 353 27 31 40 47 44 34 33 37 30 10 311 315 300 285 195 277
193 230 304 268 157 150 152 212 249 242 262 228 230 238 245 271 264 245 234 249 168 199 223 202 221 222 242 238 224 222 244 272 12 338 323 313 307 322 344 357 51 33 14 14 3 356 349 341 327 299 297 311 279 283
199 155 55 144 133 127 165 215 252 252 250 238 241 228 220 247 256 251 231 212 191 222 233 237 262 218 234 239 239 244 259 274 290 301 312 290 267 244 292 305 327 330 325 318 320 318 313 314 311 304 304 301 295 287
167 152 152 71 153 151 172 205 235 258 246 256 255 252 249 255 247 255 260 242 228 254 255 222 235 235 239 243 261 278 282 277 288 296 292 301 262 285 317 301 289 283 287 293 303 306 311 305 299 301 298 297 292 292
156 155 149 188 194 165 190 216 245 265 263 261 247 253 247 253 264 255 244 226 201 202 208 227 238 247 253 261 267 273 281 290 286 280 283 288 237 277 297 293 285 292 288 285 284 285 290 303 303 303 303 306 301 291
175 158 170 172 178 230 280 217 229 242 269 254 283 254 266 252 252 257 257 200 202 211 233 250 261 258 248 248 262 273 278 279 272 269 277 283 285 298 294 290 285 278 281 295 300 306 302 303 305 301 297 291 292 292
155 172 135 178 214 173 242 203 262 8 250 264 263 255 272 275 273 242 118 211 232 237 228 290 291 283 269 259 260 262 271 277 269 266 266 269 263 260 261 273 263 271 277 291 299 302 306 305 306 302 297 294 291 288
132 163 133 146 200 229 191 173 214 205 244 256 252 257 245 246 224 300 249 226 243 192 249 279 294 287 281 290 282 268 292 281 265 264 275 268 268 258 252 255 282 290 297 308 334 311 301 302 295 297 299 296 294 293
114 175 169 190 199 205 178 196 212 233 221 233 223 261 234 231 292 240 258 252 189 214 243 290 303 299 258 264 291 353 1 330 348 28 329 291 256 213 307 306 300 17 353 318 313 315 314 311 313 309 307 303 302 302
177 179 200 197 194 191 192 200 190 206 235 218 257 247 213 186 243 238 240 221 205 224 248 258 264 271 283 283 287 178 37 329 293 237 108 340 305 273 244 122 72 64 357 342 336 329 325 326 323 323 319 318 320 318
201 195 196 192 187 191 187 186 199 208 192 217 233 237 200 225 238 238 226 192 199 201 202 216 254 272 269 281 297 289 330 337 296 276 96 11 347 317 305 311 262 127 19 349 334 335 333 334 331 334 333 336 336 333
212 197 190 214 199 176 185 178 178 185 194 211 208 187 193 224 234 234 182 195 198 195 205 214 264 287 274 281 152 4 353 352 7 38 71 75 65 28 1 349 357 21 341 351 351 342 337 341 347 352 351 354 356 349
211 184 180 177 187 193 188 179 195 204 211 193 183 194 213 210 236 150 174 149 178 170 168 171 265 279 207 160 145 156 121 109 116 115 116 116 91 88 66 27 13 315 292 317 338 330 341 344 350 357 1 6 6 9
194 166 148 171 172 193 212 202 212 208 200 188 201 201 218 213 232 183 169 170 175 186 188 198 193 162 131 116 106 167 173 192 177 125 119 150 180 150 88 51 355 317 324 331 288 346 10 8 359 352 10 15 17 24
180 171 174 173 182 202 211 205 211 124 205 271 314 219 218 222 191 199 202 190 202 211 212 197 179 191 198 192 172 195 216 231 255 268 250 234 38 116 145 104 351 352 343 333 355 56 51 46 54 47 45 44 40 39
154 183 176 176 212 204 186 138 132 177 225 233 225 264 261 330 275 199 221 213 213 186 179 188 195 200 199 191 198 202 194 180 228 248 239 194 147 153 128 96 44 349 346 11 54 66 80 73 63 63 59 56 52 50
179 189 186 187 194 150 150 194 194 220 194 221 211 211 205 228 252 201 165 173 182 194 201 198 199 202 196 169 141 114 70 113 160 166 161 161 148 124 119 108 104 101 114 102 89 84 81 82 82 79 73 66 61 60
163 166 203 184 166 186 176 179 193 203 215 227 225 209 224 232 242 154 159 208 213 211 199 190 161 117 101 149 167 151 144 115 96 102 94 85 100 125 125 118 120 125 121 109 102 99 95 98 94 91 86 80 72 66